| time (UTC) | temp F | wind direction | speed knots | gust knots | rain 1hr in | rain 24hr in | rain mn in | humidity % | barometer mb |
| 20260906081502 | 53 | 194 | 0.0 | 0.0 | 0.00 | 0.00 | 0.00 | 88 | 1007.8 |
| 20260906080100 | 53 | 194 | 0.0 | 0.0 | 0.00 | 0.00 | 0.00 | 91 | 1007.9 |
| 20260906074557 | 52 | 194 | 0.0 | 0.0 | 0.00 | 0.00 | 0.00 | 93 | 1007.8 |
| 20260906073055 | 51 | 195 | 0.0 | 0.0 | 0.00 | 0.00 | 0.00 | 93 | 1007.8 |
| 20260906071554 | 51 | 195 | 0.0 | 0.0 | 0.00 | 0.00 | 0.00 | 94 | 1007.8 |
| 20260906070053 | 51 | 195 | 0.0 | 0.0 | 0.00 | 0.00 | 0.00 | 94 | 1007.7 |
| 20260906064551 | 50 | 195 | 0.0 | 0.0 | 0.00 | 0.00 | 0.00 | 95 | 1007.7 |
| 20260906063048 | 50 | 195 | 0.0 | 0.0 | 0.00 | 0.00 | 0.00 | 95 | 1007.6 |
| 20260906061550 | 49 | 195 | 0.0 | 0.0 | 0.00 | 0.00 | 0.00 | 95 | 1007.5 |
| 20260906060053 | 48 | 195 | 0.0 | 0.0 | 0.00 | 0.00 | 0.00 | 95 | 1007.4 |
| 20260906054545 | 48 | 195 | 0.0 | 0.0 | 0.00 | 0.00 | 0.00 | 95 | 1007.3 |
| 20260906053039 | 47 | 195 | 0.0 | 0.0 | 0.00 | 0.00 | 0.00 | 95 | 1007.4 |
| 20260906051538 | 47 | 195 | 0.0 | 0.0 | 0.00 | 0.00 | 0.00 | 96 | 1007.2 |
| 20260906050033 | 45 | 195 | 0.0 | 0.0 | 0.00 | 0.00 | 0.00 | 96 | 1007.1 |
| 20260906044531 | 43 | 196 | 0.0 | 0.0 | 0.00 | 0.00 | 0.00 | 95 | 1006.9 |
| 20260906043033 | 42 | 196 | 0.0 | 0.0 | 0.00 | 0.00 | 0.00 | 95 | 1006.8 |
| 20260906041529 | 42 | 196 | 0.0 | 0.0 | 0.00 | 0.00 | 0.00 | 94 | 1006.8 |
| 20260906040027 | 42 | 196 | 0.0 | 0.0 | 0.00 | 0.00 | 0.00 | 94 | 1006.6 |
| 20260906034546 | 42 | 196 | 0.0 | 0.0 | 0.00 | 0.00 | 0.00 | 94 | 1006.5 |
| 20260906033023 | 43 | 196 | 0.0 | 0.0 | 0.00 | 0.00 | 0.00 | 94 | 1006.5 |
| 20260906031528 | 43 | 196 | 0.0 | 0.0 | 0.00 | 0.00 | 0.00 | 94 | 1006.5 |
| 20260906030020 | 43 | 196 | 0.0 | 0.0 | 0.00 | 0.00 | 0.00 | 94 | 1006.3 |
| 20260906024518 | 43 | 196 | 0.0 | 0.0 | 0.00 | 0.00 | 0.00 | 94 | 1006.2 |
| 20260906023017 | 44 | 196 | 0.0 | 0.0 | 0.00 | 0.00 | 0.00 | 94 | 1006.3 |
| 20260906021516 | 44 | 196 | 0.0 | 0.0 | 0.00 | 0.00 | 0.00 | 94 | 1006.1 |
| 20260906020013 | 44 | 196 | 0.0 | 0.0 | 0.00 | 0.00 | 0.00 | 94 | 1006.0 |
| 20260906014513 | 44 | 196 | 0.0 | 0.0 | 0.00 | 0.00 | 0.00 | 94 | 1005.9 |
| 20260906013011 | 44 | 196 | 0.0 | 0.0 | 0.00 | 0.00 | 0.00 | 94 | 1005.8 |
| 20260906011509 | 44 | 196 | 0.0 | 0.0 | 0.00 | 0.00 | 0.00 | 94 | 1005.7 |
| 20260906010009 | 43 | 196 | 0.0 | 0.0 | 0.00 | 0.00 | 0.00 | 94 | 1005.6 |
| 20260906004506 | 43 | 196 | 0.0 | 0.0 | 0.00 | 0.00 | 0.00 | 93 | 1005.5 |
| 20260906003005 | 44 | 197 | 0.0 | 0.0 | 0.00 | 0.00 | 0.00 | 93 | 1005.4 |
| 20260906001502 | 44 | 197 | 0.0 | 0.0 | 0.00 | 0.00 | 0.00 | 93 | 1005.3 |
| 20260906000100 | 45 | 197 | 0.0 | 0.0 | 0.00 | 0.00 | 0.00 | 93 | 1005.2 |
| 20260905234557 | 45 | 197 | 0.0 | 0.0 | 0.00 | 0.00 | 0.00 | 93 | 1005.1 |
| 20260905233057 | 45 | 197 | 0.0 | 0.0 | 0.00 | 0.00 | 0.00 | 93 | 1004.9 |
| 20260905231556 | 45 | 197 | 0.0 | 0.0 | 0.00 | 0.00 | 0.00 | 93 | 1005.0 |
| 20260905230054 | 45 | 197 | 0.0 | 0.0 | 0.00 | 0.00 | 0.00 | 93 | 1004.8 |
| 20260905224552 | 45 | 197 | 0.0 | 0.0 | 0.00 | 0.00 | 0.00 | 92 | 1004.6 |
| 20260905223055 | 45 | 197 | 0.0 | 0.0 | 0.00 | 0.00 | 0.00 | 92 | 1004.7 |
| 20260905221548 | 45 | 197 | 0.0 | 0.0 | 0.00 | 0.00 | 0.00 | 92 | 1004.7 |
| 20260905220046 | 46 | 197 | 0.0 | 0.0 | 0.00 | 0.00 | 0.00 | 92 | 1004.4 |
| 20260905214547 | 46 | 197 | 0.0 | 0.0 | 0.00 | 0.00 | 0.00 | 92 | 1004.2 |
| 20260905213042 | 46 | 197 | 0.0 | 0.0 | 0.00 | 0.00 | 0.00 | 91 | 1004.2 |
| 20260905211539 | 47 | 197 | 0.0 | 0.0 | 0.00 | 0.00 | 0.00 | 91 | 1003.9 |
| 20260905210050 | 47 | 197 | 0.0 | 0.0 | 0.00 | 0.00 | 0.00 | 90 | 1003.7 |
| 20260905204535 | 48 | 197 | 0.0 | 0.0 | 0.00 | 0.00 | 0.00 | 90 | 1003.5 |
| 20260905203032 | 48 | 197 | 0.0 | 0.0 | 0.00 | 0.00 | 0.00 | 89 | 1003.4 |
| 20260905201531 | 49 | 197 | 0.0 | 0.0 | 0.00 | 0.00 | 0.00 | 89 | 1003.4 |
| 20260905200032 | 50 | 197 | 0.0 | 0.0 | 0.00 | 0.00 | 0.00 | 88 | 1003.2 |
| 20260905194521 | 51 | 197 | 0.0 | 0.0 | 0.00 | 0.00 | 0.00 | 88 | 1003.0 |
| 20260905193021 | 52 | 197 | 0.0 | 0.0 | 0.00 | 0.00 | 0.00 | 88 | 1003.0 |
| 20260905191520 | 52 | 197 | 0.0 | 0.0 | 0.00 | 0.00 | 0.00 | 87 | 1002.9 |
| 20260905190015 | 53 | 197 | 0.0 | 0.0 | 0.00 | 0.00 | 0.00 | 87 | 1002.6 |
| 20260905184526 | 54 | 198 | 0.0 | 0.0 | 0.00 | 0.00 | 0.00 | 86 | 1002.6 |
| 20260905183012 | 54 | 198 | 0.0 | 0.0 | 0.00 | 0.00 | 0.00 | 85 | 1002.5 |
| 20260905181510 | 55 | 198 | 0.0 | 0.0 | 0.00 | 0.00 | 0.00 | 83 | 1002.2 |
| 20260905180010 | 56 | 199 | 0.0 | 0.0 | 0.00 | 0.00 | 0.00 | 81 | 1002.1 |
| 20260905174508 | 57 | 198 | 0.9 | 0.0 | 0.00 | 0.00 | 0.00 | 80 | 1001.9 |
| 20260905173010 | 58 | 194 | 1.7 | 0.0 | 0.00 | 0.00 | 0.00 | 78 | 1001.9 |
| 20260905171507 | 59 | 192 | 0.9 | 0.0 | 0.00 | 0.00 | 0.00 | 77 | 1001.7 |
| 20260905170005 | 60 | 202 | 0.9 | 0.0 | 0.00 | 0.00 | 0.00 | 74 | 1001.6 |
| 20260905164502 | 61 | 207 | 0.9 | 0.0 | 0.00 | 0.00 | 0.00 | 70 | 1001.4 |
| 20260905163001 | 61 | 143 | 0.0 | 0.0 | 0.00 | 0.00 | 0.00 | 70 | 1001.3 |
| 20260905161600 | 61 | 143 | 0.0 | 0.0 | 0.00 | 0.00 | 0.00 | 64 | 1001.0 |
| 20260905160059 | 62 | 144 | 0.0 | 0.0 | 0.00 | 0.00 | 0.00 | 63 | 1001.2 |
| 20260905154603 | 63 | 144 | 0.0 | 0.0 | 0.00 | 0.00 | 0.00 | 61 | 1000.9 |
| 20260905153056 | 63 | 196 | 0.0 | 0.0 | 0.00 | 0.00 | 0.00 | 63 | 1000.8 |
| 20260905151604 | 63 | 197 | 0.0 | 0.0 | 0.00 | 0.00 | 0.00 | 67 | 1000.6 |
| 20260905150054 | 61 | 198 | 1.7 | 0.0 | 0.00 | 0.00 | 0.00 | 70 | 1000.6 |
| 20260905144554 | 62 | 192 | 1.7 | 0.0 | 0.00 | 0.00 | 0.00 | 69 | 1000.6 |
| 20260905143053 | 62 | 215 | 0.0 | 0.0 | 0.00 | 0.00 | 0.00 | 69 | 1000.4 |
| 20260905141551 | 61 | 229 | 0.9 | 0.0 | 0.00 | 0.00 | 0.00 | 70 | 1000.3 |
| 20260905140050 | 61 | 206 | 1.7 | 0.0 | 0.00 | 0.00 | 0.00 | 68 | 1000.2 |
| 20260905134549 | 61 | 221 | 0.9 | 0.0 | 0.00 | 0.00 | 0.00 | 69 | 1000.1 |
| 20260905133047 | 62 | 223 | 0.9 | 0.0 | 0.00 | 0.00 | 0.00 | 69 | 1000.0 |
| 20260905131555 | 65 | 202 | 1.7 | 0.0 | 0.00 | 0.00 | 0.00 | 64 | 999.9 |
| 20260905130044 | 64 | 210 | 0.9 | 0.0 | 0.00 | 0.00 | 0.00 | 66 | 999.9 |
| 20260905124542 | 62 | 207 | 0.9 | 0.0 | 0.00 | 0.00 | 0.00 | 67 | 999.7 |
| 20260905123101 | 61 | 240 | 1.7 | 0.0 | 0.00 | 0.00 | 0.00 | 67 | 999.8 |
| 20260905121538 | 62 | 240 | 1.7 | 0.0 | 0.00 | 0.00 | 0.00 | 66 | 999.8 |
| 20260905120037 | 64 | 281 | 1.7 | 0.0 | 0.00 | 0.00 | 0.00 | 63 | 999.5 |
| 20260905114538 | 64 | 206 | 1.7 | 0.0 | 0.00 | 0.00 | 0.00 | 61 | 999.7 |
| 20260905113034 | 64 | 242 | 0.0 | 0.0 | 0.00 | 0.00 | 0.00 | 57 | 999.4 |
| 20260905111530 | 65 | 128 | 0.0 | 0.0 | 0.00 | 0.00 | 0.00 | 54 | 999.3 |
| 20260905110026 | 64 | 132 | 0.9 | 0.0 | 0.00 | 0.00 | 0.00 | 58 | 999.2 |
| 20260905104523 | 64 | 115 | 0.9 | 0.0 | 0.00 | 0.00 | 0.00 | 59 | 999.1 |
| 20260905103024 | 62 | 154 | 0.9 | 0.0 | 0.00 | 0.00 | 0.00 | 62 | 999.1 |
| 20260905101518 | 62 | 72 | 2.6 | 0.0 | 0.00 | 0.00 | 0.00 | 60 | 998.9 |
| 20260905100014 | 61 | 82 | 2.6 | 0.0 | 0.00 | 0.00 | 0.00 | 63 | 998.8 |
| 20260905094514 | 61 | 102 | 2.6 | 0.0 | 0.00 | 0.00 | 0.00 | 64 | 998.8 |
| 20260905093011 | 60 | 101 | 2.6 | 0.0 | 0.00 | 0.00 | 0.00 | 64 | 998.9 |
| 20260905091508 | 60 | 138 | 4.3 | 0.0 | 0.00 | 0.00 | 0.00 | 64 | 998.8 |
| 20260905090007 | 60 | 136 | 4.3 | 0.0 | 0.00 | 0.00 | 0.00 | 65 | 998.7 |
| 20260905084506 | 60 | 76 | 3.5 | 0.0 | 0.00 | 0.00 | 0.00 | 65 | 998.7 |
| 20260905083002 | 59 | 101 | 3.5 | 0.0 | 0.00 | 0.00 | 0.00 | 67 | 998.7 |